Date String (YYYY-MM-DD hh:mm:ss) UTC,Instrument flags,Ambient pressure (hPa),Sample flow (lpm),Bypass flow (lpm),Sample temperature (°C),Ambient temperature (°C),ASC tube jacket temperature (°C),LED temperature (°C),Box temperature (°C),Sample RH (%),Span deviation,Mass concentration (μg/m³),Mass concentration (μg/m³),Mass concentration (μg/m³)
DateTimeUTC,F1_M11,P_M11,Q1_M11,Q2_M11,T1_M11,T2_M11,T3_M11,T4_M11,T5_M11,U1_M11,ZSPAN_M11,X2_M11,X0_M11,X1_M11
2023-04-30 20:00:00,,0830.2,5.01,0.00,28.7,27.4,00.0,37.1,30.3,14.8,0002.0,0007.57,0015.86,0005.81
2023-04-30 20:01:00,,0830.2,4.99,0.00,28.7,27.4,00.0,37.1,30.3,14.4,0001.3,0007.62,0015.88,0005.84
2023-04-30 20:02:00,,0830.2,4.99,0.00,28.7,27.4,00.0,37.1,30.3,14.5,0001.7,0007.63,0015.82,0005.84
2023-04-30 20:03:00,,0830.2,5.01,0.00,28.7,27.4,00.0,37.1,30.3,14.7,0001.8,0007.69,0016.30,0005.87
2023-04-30 20:04:00,,0830.1,5.00,0.00,28.7,27.5,00.0,37.1,30.3,14.8,0001.7,0007.84,0015.98,0005.97
2023-04-30 20:05:00,,0830.2,5.01,0.00,28.8,27.5,00.0,37.1,30.4,15.0,0001.1,0007.92,0015.71,0006.04
2023-04-30 20:06:00,,0830.3,4.99,0.00,28.8,27.6,00.0,37.1,30.4,15.0,0001.9,0008.05,0017.80,0006.11
2023-04-30 20:07:00,,0830.3,4.99,0.00,28.8,27.6,00.0,37.1,30.4,14.8,0002.3,0008.15,0018.52,0006.18
2023-04-30 20:08:00,,0830.2,5.00,0.00,28.8,27.6,00.0,37.2,30.4,14.6,0001.3,0008.11,0018.20,0006.22
2023-04-30 20:09:00,,0830.2,5.01,0.00,28.8,27.5,00.0,37.2,30.4,14.4,0000.8,0008.09,0018.19,0006.26
2023-04-30 20:10:00,,0830.2,5.01,0.00,28.8,27.5,00.0,37.2,30.3,14.4,0001.0,0008.10,0018.11,0006.29
2023-04-30 20:11:00,,0830.2,4.98,0.00,28.8,27.5,00.0,37.2,30.3,14.6,0001.6,0008.07,0018.38,0006.30
2023-04-30 20:12:00,,0830.1,5.00,0.00,28.8,27.5,00.0,37.2,30.4,14.7,0002.5,0008.00,0018.32,0006.28
2023-04-30 20:13:00,,0830.1,5.00,0.00,28.8,27.5,00.0,37.2,30.4,14.7,0002.7,0007.98,0019.02,0006.28
2023-04-30 20:14:00,,0830.1,5.00,0.00,28.8,27.5,00.0,37.2,30.4,14.7,0003.1,0007.92,0019.07,0006.24
2023-04-30 20:15:00,,0830.1,5.00,0.00,28.8,27.5,00.0,37.2,30.4,15.0,0004.0,0007.82,0018.83,0006.18
2023-04-30 20:16:00,,0830.2,5.02,0.00,28.8,27.5,00.0,37.2,30.4,14.8,0005.0,0007.78,0019.72,0006.14
2023-04-30 20:17:00,,0830.1,4.98,0.00,28.8,27.5,00.0,37.2,30.3,15.2,0004.8,0007.75,0018.00,0006.10
2023-04-30 20:18:00,,0830.1,5.00,0.00,28.8,27.5,00.0,37.2,30.4,15.2,0004.3,0007.73,0017.40,0006.10
2023-04-30 20:19:00,,0830.1,5.02,0.00,28.8,27.5,00.0,37.2,30.4,15.2,0004.6,0007.78,0018.44,0006.12
2023-04-30 20:20:00,,0830.1,4.97,0.00,28.9,27.6,00.0,37.2,30.4,15.0,0004.8,0007.82,0018.82,0006.15
2023-04-30 20:21:00,,0830.1,5.00,0.00,28.9,27.6,00.0,37.2,30.5,15.5,0004.0,0007.84,0018.80,0006.18
2023-04-30 20:22:00,,0830.1,5.01,0.00,28.9,27.6,00.0,37.2,30.5,15.5,0004.4,0007.90,0018.93,0006.21
2023-04-30 20:23:00,,0830.1,5.00,0.00,28.9,27.6,00.0,37.3,30.5,15.4,0004.4,0007.98,0019.32,0006.26
2023-04-30 20:24:00,,0830.1,4.99,0.00,28.9,27.7,00.0,37.3,30.5,15.4,0004.5,0007.99,0019.71,0006.29
2023-04-30 20:25:00,,0830.1,5.01,0.00,28.9,27.6,00.0,37.3,30.5,15.2,0004.3,0008.05,0020.45,0006.33
2023-04-30 20:26:00,,0830.1,4.98,0.00,28.9,27.6,00.0,37.3,30.4,15.0,0004.2,0008.00,0022.33,0006.32
2023-04-30 20:27:00,,0830.1,4.99,0.00,28.9,27.6,00.0,37.3,30.4,15.2,0003.9,0007.94,0021.58,0006.31
2023-04-30 20:28:00,,0830.0,5.00,0.00,28.9,27.6,00.0,37.3,30.4,15.3,0003.7,0007.89,0022.56,0006.30
2023-04-30 20:29:00,,0830.1,5.00,0.00,28.9,27.6,00.0,37.3,30.4,15.3,0004.1,0007.77,0022.09,0006.22
2023-04-30 20:30:00,,0830.0,5.01,0.00,28.9,27.6,00.0,37.3,30.4,14.9,0004.1,0007.68,0022.41,0006.15
2023-04-30 20:31:00,,0830.0,5.00,0.00,28.9,27.6,00.0,37.3,30.4,15.0,0004.2,0007.63,0022.82,0006.09
2023-04-30 20:32:00,,0830.0,5.00,0.00,28.9,27.6,00.0,37.3,30.4,15.1,0004.3,0007.58,0022.39,0006.00
2023-04-30 20:33:00,,0830.1,4.99,0.00,28.9,27.6,00.0,37.3,30.4,14.8,0004.3,0007.52,0021.65,0005.94
2023-04-30 20:34:00,,0830.1,5.01,0.00,28.9,27.5,00.0,37.3,30.4,14.7,0004.1,0007.44,0021.24,0005.87
2023-04-30 20:35:00,,0830.1,4.99,0.00,28.9,27.5,00.0,37.3,30.4,14.9,0002.8,0007.42,0020.16,0005.79
2023-04-30 20:36:00,,0830.1,4.99,0.00,28.9,27.5,00.0,37.3,30.5,14.8,0002.4,0007.33,0019.20,0005.72
2023-04-30 20:37:00,,0830.0,5.02,0.00,28.9,27.6,00.0,37.3,30.5,14.8,0001.5,0007.31,0017.77,0005.67
2023-04-30 20:38:00,,0830.0,4.99,0.00,28.9,27.6,00.0,37.3,30.5,14.9,0002.4,0007.32,0017.36,0005.62
2023-04-30 20:39:00,,0830.0,4.99,0.00,28.9,27.6,00.0,37.3,30.5,15.2,0002.7,0007.26,0016.48,0005.56
2023-04-30 20:40:00,,0830.0,5.00,0.00,28.9,27.6,00.0,37.3,30.5,14.7,0002.9,0007.20,0016.25,0005.50
2023-04-30 20:41:00,,0830.0,5.00,0.00,29.0,27.6,00.0,37.4,30.5,14.8,0001.6,0007.13,0015.15,0005.44
2023-04-30 20:42:00,,0830.0,5.00,0.00,29.0,27.7,00.0,37.4,30.5,15.2,0001.4,0007.04,0014.08,0005.37
2023-04-30 20:43:00,,0830.0,5.03,0.00,29.0,27.7,00.0,37.4,30.5,14.7,0001.3,0006.90,0014.03,0005.29
2023-04-30 20:44:00,,0830.1,4.98,0.00,29.0,27.7,00.0,37.4,30.5,14.9,0001.3,0006.83,0014.93,0005.20
2023-04-30 20:45:00,,0830.1,5.00,0.00,29.0,27.7,00.0,37.4,30.5,14.6,0000.7,0006.78,0014.99,0005.13
2023-04-30 20:46:00,,0830.0,5.01,0.00,29.0,27.7,00.0,37.4,30.5,14.5,0000.0,0006.72,0014.87,0005.10
2023-04-30 20:47:00,,0830.0,5.00,0.00,29.0,27.7,00.0,37.4,30.6,14.3,0000.9,0006.70,0014.84,0005.05
2023-04-30 20:48:00,,0830.0,4.99,0.00,29.0,27.8,00.0,37.4,30.6,14.4,0001.1,0006.68,0014.40,0005.01
2023-04-30 20:49:00,,0830.0,5.01,0.00,29.0,27.8,00.0,37.4,30.6,14.6,0001.0,0006.67,0014.49,0004.96
2023-04-30 20:50:00,,0830.0,5.00,0.00,29.1,27.9,00.0,37.4,30.6,14.7,0001.6,0006.65,0014.39,0004.93
2023-04-30 20:51:00,,0830.0,5.00,0.00,29.1,27.9,00.0,37.4,30.6,14.9,0000.3,0006.69,0014.25,0004.94
2023-04-30 20:52:00,,0830.0,5.00,0.00,29.1,27.9,00.0,37.4,30.6,14.9,0000.2,0006.76,0015.55,0004.97
2023-04-30 20:53:00,,0829.9,4.99,0.00,29.1,27.8,00.0,37.4,30.6,14.9,0001.3,0006.75,0015.97,0005.01
2023-04-30 20:54:00,,0829.9,5.00,0.00,29.1,27.8,00.0,37.5,30.6,15.0,0001.2,0006.76,0015.88,0005.04
2023-04-30 20:55:00,,0829.9,4.99,0.00,29.1,27.8,00.0,37.5,30.7,15.2,0001.5,0006.80,0014.99,0005.10
2023-04-30 20:56:00,,0829.8,4.99,0.00,29.1,27.9,00.0,37.5,30.7,15.1,0001.5,0006.82,0014.77,0005.13
2023-04-30 20:57:00,,0829.8,4.99,0.00,29.1,27.9,00.0,37.5,30.7,15.1,0001.4,0006.84,0014.78,0005.13
2023-04-30 20:58:00,,0829.9,5.01,0.00,29.1,27.9,00.0,37.5,30.7,14.7,0003.1,0006.80,0015.28,0005.15
2023-04-30 20:59:00,,0829.8,5.01,0.00,29.1,27.9,00.0,37.5,30.7,14.9,0003.8,0006.79,0015.87,0005.17
